Weather History for Keahole Point, HI

Change the Weather History Date:

Wednesday, November 28, 2012

  Actual Average Record
Temperature  
Mean Temperature 75 °F -  
Max Temperature 82 °F 81 °F 89 °F (1983)
Min Temperature 68 °F 69 °F 66 °F (1982)
Cooling Degree Days 10    
Growing Degree Days 25 (Base 50)    
Moisture  
Dew Point 61 °F    
Average Humidity 61    
Maximum Humidity 68    
Minimum Humidity 52    
Precipitation  
Precipitation 0.00 in - - ()
Sea Level Pressure  
Sea Level Pressure 30.01 in    
Wind  
Wind Speed 6 mph (SSE)    
Max Wind Speed 13 mph    
Max Gust Speed -    
Visibility 10 miles    
Events      
Averages and records for this station are not official NWS values.
T = Trace of Precipitation, MM = Missing Value Source: NWS Daily Summary

Daily Weather History Graph

Daily Weather History Graph

Search for Another Location

Airport:

Trip Planner

Search our weather history database for the weather conditions in past years. The results will help you decide how hot, cold, wet, or windy it might be!

Date:

Astronomy

Nov. 28, 2012 Rise Set
Actual Time 6:40 AM HST 5:43 PM HST
Civil Twilight 6:17 AM HST 6:07 PM HST
Nautical Twilight 5:50 AM HST 6:34 PM HST
Astronomical Twilight 5:23 AM HST 7:01 PM HST
Moon 6:07 PM HST (11/28) 6:47 AM HST (11/28)
Length of Visible Light 11h 50m
Length of Day
11h 02m
Full, 100% of the Moon is Illuminated
Nov 28
Full
Dec 6
Last Quarter
Dec 12
New
Dec 19
First Quarter
Dec 28
Full

Hourly Weather History & Observations

Time (HST) Temp. Heat Index Dew Point Humidity Pressure Visibility Wind Dir Wind Speed Gust Speed Precip Events Conditions
12:53 AM 70.0 °F - 59.0 °F 68% 30.03 in 10.0 mi NNE 4.6 mph - N/A   Clear
1:53 AM 70.0 °F - 57.9 °F 65% 30.01 in 10.0 mi NNE 3.5 mph - N/A   Clear
2:53 AM 71.1 °F - 59.0 °F 66% 30.00 in 10.0 mi East 4.6 mph - N/A   Clear
3:53 AM 69.1 °F - 55.9 °F 63% 29.99 in 10.0 mi East 5.8 mph - N/A   Clear
4:53 AM 68.0 °F - 55.0 °F 63% 29.98 in 10.0 mi ENE 4.6 mph - N/A   Clear
5:53 AM 69.1 °F - 55.0 °F 61% 29.99 in 10.0 mi Calm Calm - N/A   Clear
6:53 AM 68.0 °F - 55.9 °F 65% 30.01 in 10.0 mi Calm Calm - N/A   Clear
7:53 AM 73.9 °F - 60.1 °F 62% 30.03 in 10.0 mi ESE 4.6 mph - N/A   Clear
8:53 AM 78.1 °F - 64.0 °F 62% 30.04 in 10.0 mi South 5.8 mph - N/A   Clear
9:53 AM 79.0 °F - 64.0 °F 60% 30.05 in 10.0 mi South 8.1 mph - N/A   Clear
10:53 AM 80.1 °F 81.7 °F 64.0 °F 58% 30.04 in 10.0 mi SSW 11.5 mph - N/A   Clear
11:53 AM 80.1 °F 81.7 °F 64.0 °F 58% 30.02 in 10.0 mi SW 12.7 mph - N/A   Clear
12:53 PM 82.0 °F 83.1 °F 63.0 °F 52% 30.00 in 10.0 mi SW 11.5 mph - N/A   Clear
1:53 PM 81.0 °F 82.2 °F 63.0 °F 54% 29.98 in 10.0 mi SW 11.5 mph - N/A   Clear
2:53 PM 81.0 °F 82.2 °F 63.0 °F 54% 29.97 in 10.0 mi SW 11.5 mph - N/A   Clear
3:53 PM 79.0 °F - 64.0 °F 60% 29.96 in 10.0 mi WSW 9.2 mph - N/A   Clear
4:53 PM 78.1 °F - 63.0 °F 60% 29.98 in 10.0 mi SW 8.1 mph - N/A   Clear
5:53 PM 77.0 °F - 62.1 °F 60% 29.99 in 10.0 mi SW 3.5 mph - N/A   Clear
6:53 PM 77.0 °F - 62.1 °F 60% 30.00 in 10.0 mi West 5.8 mph - N/A   Clear
7:53 PM 75.9 °F - 62.1 °F 62% 30.02 in 10.0 mi Calm Calm - N/A   Clear
8:53 PM 73.0 °F - 61.0 °F 66% 30.04 in 10.0 mi NE 5.8 mph - N/A   Clear
9:53 PM 73.0 °F - 61.0 °F 66% 30.04 in 10.0 mi ENE 5.8 mph - N/A   Clear
10:53 PM 72.0 °F - 60.1 °F 66% 30.05 in 10.0 mi ENE 4.6 mph - N/A   Clear
11:53 PM 71.1 °F - 57.9 °F 63% 30.05 in 10.0 mi ENE 4.6 mph - N/A   Clear